STARLINK-1039 (44744 NORAD) Tracking and Keplerian Element Data

This shows tracking and keplerian element data for the satellite.

Feedback or suggestion? Click here.




ElementValue
Catalog44744
NameSTARLINK-1039
Epoch Orbit1035
Epoch Day17.91667824
Epoch Year2020
RAAN214.8269
Inclination53.0052
Eccentricity0.0001978
Argument of Perigee82.7364
Mean Anonmoly163.2544
Mean Motion15.05574431
Decay Rate0.00029826
L11 44744U 19074AH 20017.91667824 .00029826 00000-0 20578-2 0 9998
L22 44744 53.0052 214.8269 0001978 82.7364 163.2544 15.05574431 10356

Live tracking and technical data element details for STARLINK-1039 (NORAD 44744). STARLINK-1039 can be tracked NOW for your location showing map with azimuth and elevation plus other details from your city location.

Track the satellite on the map from your city or location and see movement details for azimuth, elevation, latitude, longitude, range, height, and movement on the map or in text.







IsCatalogInMostPopularTable: catalog: 44744, numindb: 11
Update: records affected: 1



GetName: 44744 STARLINK-1039

Hit Count: updated at: Sat, 18 Jan 2020 16:59:09 GMT